Torna al catalogo

PRSC-EO2

AttivoScienzaSSO
NORAD 67746·PAYLOAD·🇨🇳 China
Questo nome del satellite non è ancora stato confermato da fonti ufficiali.

Lanciato Feb 12, 2026 da South China Sea Launch Area

Loading…

Prossimi Passaggi (prossime 24 ore)

TLE

AggiornatoSource: Space-Track

Epoca: Sep 13, 2026, 21:45 UTC

1 67746U 26027A   26256.90630636  .00005193  00000-0  24395-3 0  9995
2 67746  97.5177  24.6299 0008214 263.6561  96.3739 15.20028107 32439

Traccia PRSC-EO2 in tempo reale con AllMySat

Download on the App Store